Lid_Strength_Index
2 2 1 2 8 8 10 9 7 8 7 9 9 7 7 11 10 10 9 10 10 11 11 8 5 4 3 1 1 0 0 -0 -1 -1 -2 -1 -1 -1 -1 -1 -1 -1 -1 -1 -1 -1 -1 -1 -1
4 4 2 4 10 12 10 8 8 8 8 8 10 9 9 13 10 11 10 11 10 10 10 9 6 4 3 3 2 1 1 0 -0 -1 -1 -1 -1 -1 -1 -1 -1 -1 -1 -1 -1 -1 -1 -1 -1
5 4 4 7 9 12 11 8 9 10 10 9 10 10 11 13 12 11 11 11 10 10 10 9 6 5 4 3 3 2 2 2 1 0 -0 -0 -1 -1 -1 -1 -1 -1 -1 -1 -1 -1 -1 -1 -1
4 3 4 9 11 9 9 8 9 11 11 11 10 13 13 13 12 12 11 11 11 10 11 10 7 6 5 4 3 3 3 2 3 2 1 1 1 1 -0 -1 -1 -1 -1 -1 -1 -1 -1 -1 -1
3 4 9 10 10 8 9 9 9 11 12 12 12 13 14 13 12 12 11 11 11 10 10 10 9 7 6 5 5 4 4 4 3 2 3 3 2 2 2 1 0 0 -1 -1 -1 -1 -1 -1 -1
5 5 11 12 10 9 10 9 10 10 11 12 12 12 14 13 13 12 11 11 10 10 9 10 9 9 8 7 6 6 5 5 5 4 4 4 3 4 3 2 1 1 1 0 0 -0 -1 -1 -1
6 7 10 10 10 10 10 10 11 11 11 13 12 13 14 13 13 12 12 11 11 11 11 10 10 9 9 8 8 7 7 7 6 6 6 6 5 5 5 5 4 3 2 1 0 1 1 1 -1
5 6 9 9 10 10 11 13 12 11 13 13 13 13 14 14 13 13 12 12 11 11 11 10 10 10 9 9 9 9 8 8 8 7 7 7 6 6 6 6 6 4 4 3 2 2 2 2 1
5 9 11 10 9 9 11 12 14 14 14 14 15 14 14 14 13 13 12 12 12 12 12 11 10 10 10 10 10 9 9 9 8 8 8 7 7 8 7 7 7 6 5 4 4 3 4 3 2
7 9 9 10 9 9 11 10 12 12 15 16 15 16 15 14 14 14 14 13 13 13 12 12 11 11 11 10 10 9 9 9 9 9 9 9 9 9 9 8 8 7 7 6 5 5 4 3 4
9 9 10 11 10 11 12 13 12 10 12 12 15 16 15 15 15 15 15 14 14 14 13 12 12 12 11 11 10 10 10 10 10 10 10 9 9 9 9 9 8 8 8 8 7 7 7 7 6
11 12 11 13 12 11 13 12 13 12 13 13 13 14 15 15 15 15 15 15 14 14 13 13 12 12 12 11 11 11 11 10 11 11 10 10 9 9 9 9 8 8 8 8 8 8 7 7 6
12 13 12 12 12 12 12 12 13 15 14 14 14 15 15 16 15 15 15 14 14 14 14 14 13 13 12 11 11 11 11 11 11 11 11 10 10 10 10 10 10 10 10 10 9 9 8 8 8
11 11 13 13 12 12 13 13 13 13 14 14 15 15 15 15 15 15 15 14 13 13 12 12 13 12 12 12 12 12 12 12 12 13 13 12 12 12 11 11 11 11 10 10 9 9 9 8 8
10 12 12 12 12 12 12 12 13 11 12 13 13 14 14 15 15 14 14 14 14 14 13 13 13 12 13 13 13 13 13 13 13 13 12 12 12 12 11 11 11 11 10 10 9 9 9 9 9
11 11 12 13 12 12 12 12 11 11 12 12 12 12 13 13 14 13 13 13 13 14 14 14 13 13 13 13 13 12 12 11 12 12 12 12 12 11 12 12 12 11 10 10 10 10 9 10 9
11 13 12 13 13 13 12 12 12 11 11 11 11 11 12 12 12 12 12 12 12 12 13 12 12 12 12 12 12 12 11 12 12 12 12 12 12 11 11 12 12 11 11 11 10 10 10 10 10
13 14 14 13 14 14 13 13 11 11 12 11 10 11 11 12 12 11 12 12 12 12 12 12 12 12 12 11 11 11 11 12 12 12 12 12 12 11 11 11 11 11 11 11 11 10 10 10 10
13 14 14 13 15 15 14 13 12 11 12 12 11 11 11 11 11 11 11 11 12 12 12 12 12 12 11 11 11 11 12 12 12 12 12 11 11 11 11 11 11 11 11 12 11 10 10 10 10
13 14 14 13 15 15 14 14 12 11 11 11 10 10 10 11 11 12 12 12 12 12 12 12 12 12 11 11 11 11 11 12 12 11 11 11 11 11 11 11 11 11 11 12 12 11 11 10 10
15 15 15 16 14 14 15 13 12 11 10 10 10 9 9 10 11 12 12 12 12 12 12 12 12 12 11 11 11 11 11 11 11 11 11 11 11 11 11 11 11 11 11 12 12 12 12 12 11
16 16 16 16 15 16 14 17 12 10 11 11 11 10 9 9 10 10 11 12 12 11 11 11 11 11 11 11 11 11 11 12 12 11 11 11 11 11 11 11 11 11 11 12 12 12 12 12 12
17 16 16 16 15 16 15 17 13 12 11 11 10 10 9 9 9 10 10 11 10 10 10 10 11 11 11 11 10 10 11 11 11 11 11 11 11 11 11 11 11 11 11 12 12 12 12 12 12
15 15 15 15 15 17 16 16 14 12 12 11 10 10 9 9 9 9 9 9 10 10 10 10 10 11 10 10 10 10 10 11 11 11 11 11 11 11 11 11 11 11 12 12 12 12 12 12 12
15 16 16 17 17 17 17 18 14 11 11 11 11 10 10 9 8 9 9 10 10 10 10 10 10 10 10 10 10 10 10 11 11 11 11 11 11 11 11 11 11 12 12 12 12 12 12 12 12
16 15 15 19 18 17 17 18 12 11 11 10 10 10 10 9 8 8 8 9 9 9 9 9 10 10 10 10 10 10 10 10 10 11 11 11 11 11 11 11 11 11 12 12 12 12 12 12 12
16 17 15 17 21 19 15 13 11 12 11 11 11 11 10 9 8 8 8 8 9 9 9 9 9 9 9 10 9 10 10 10 10 10 10 10 10 11 11 11 11 11 11 12 12 12 12 12 12
17 15 18 16 19 20 16 16 15 12 12 11 11 10 10 10 9 8 8 8 8 8 8 8 9 9 9 9 9 9 9 10 10 10 10 10 10 11 11 11 11 11 11 12 12 12 12 13 13
19 18 18 17 17 18 18 15 9 11 11 11 11 10 10 9 9 9 8 8 8 8 8 8 8 9 8 8 9 9 9 9 9 10 9 9 10 10 11 11 11 12 12 12 12 13 13 13 13
18 16 15 16 18 18 18 17 11 11 11 11 11 11 10 10 9 8 8 8 8 8 8 8 8 9 8 8 8 8 9 9 9 9 9 9 10 10 11 11 12 12 12 12 13 13 13 14 14